Weather History for Fort Payne, AL

Change the Weather History Date:

Friday, November 9, 2012

  Actual Average (KRMG) Record (KRMG)
Temperature  
Mean Temperature 49 °F 53 °F  
Max Temperature 66 °F 66 °F 82 °F (2005)
Min Temperature 32 °F 40 °F 28 °F (2007)
Degree Days  
Heating Degree Days 16 12  
Month to date heating degree days 99  
Since 1 July heating degree days 276  
Moisture  
Dew Point 35 °F    
Average Humidity 60    
Maximum Humidity 93    
Minimum Humidity 24    
Precipitation  
Precipitation 0.00 in 0.14 in 2.63 in (2000)
Month to date precipitation 1.21  
Snow  
Snow 0.00 in - - ()
Month to date snowfall  
Since 1 July snowfall  
Since 1 September snowfall  
Snow Depth -    
Sea Level Pressure  
Sea Level Pressure 30.24 in    
Wind  
Wind Speed 1 mph (NNW)    
Max Wind Speed 5 mph    
Max Gust Speed -    
Visibility 7 miles    
Events Fog    
T = Trace of Precipitation, MM = Missing Value Source: NWS Daily Summary

Daily Weather History Graph

Daily Weather History Graph

Search for Another Location

Airport:

Trip Planner

Search our weather history database for the weather conditions in past years. The results will help you decide how hot, cold, wet, or windy it might be!

Date:

Astronomy

Nov. 09, 2012 Rise Set
Actual Time 6:11 AM CST 4:42 PM CST
Civil Twilight 5:44 AM CST 5:08 PM CST
Nautical Twilight 5:14 AM CST 5:38 PM CST
Astronomical Twilight 4:44 AM CST 6:08 PM CST
Moon 1:20 AM CST (11/9) 1:44 PM CST (11/9)
Length of Visible Light 11h 23m
Length of Day
10h 31m
Waning Crescent, 23% of the Moon is Illuminated
Nov 9
Waning Crescent
Nov 13
New
Nov 20
First Quarter
Nov 28
Full
Dec 6
Last Quarter

Hourly Weather History & Observations

Time (CST) Temp. Dew Point Humidity Pressure Visibility Wind Dir Wind Speed Gust Speed Precip Events Conditions
12:15 AM - - N/A% 30.21 in 2.5 mi Calm Calm - N/A   Clear
12:35 AM - - N/A% 30.21 in 3.0 mi Calm Calm - N/A   Clear
12:55 AM - - N/A% 30.21 in 2.5 mi Calm Calm - N/A   Clear
1:15 AM - - N/A% 30.21 in 3.0 mi Calm Calm - N/A   Clear
1:35 AM - - N/A% 30.22 in 2.5 mi Calm Calm - N/A   Clear
1:55 AM - - N/A% 30.22 in 2.5 mi Calm Calm - N/A   Clear
2:15 AM - - N/A% 30.21 in 3.0 mi Calm Calm - N/A   Clear
2:35 AM 32.0 °F 30.2 °F 93% 30.21 in 2.5 mi Calm Calm - N/A   Clear
2:55 AM 32.0 °F 30.2 °F 93% 30.21 in 2.0 mi Calm Calm - N/A   Clear
3:15 AM - - N/A% 30.22 in 0.2 mi NNE 3.5 mph - N/A Fog Fog
3:35 AM - - N/A% 30.23 in 0.2 mi NNE 3.5 mph - N/A Fog Fog
3:55 AM - - N/A% 30.23 in 0.2 mi NNE 3.5 mph - N/A Fog Fog
4:15 AM - - N/A% 30.23 in 0.2 mi Calm Calm - N/A Fog Fog
4:35 AM - - N/A% 30.24 in 0.2 mi Calm Calm - N/A Fog Fog
4:55 AM - - N/A% 30.25 in 0.2 mi NNE 3.5 mph - N/A Fog Fog
5:15 AM - - N/A% 30.25 in 0.2 mi Calm Calm - N/A Fog Fog
5:35 AM - - N/A% 30.26 in 0.2 mi Calm Calm - N/A Fog Fog
5:55 AM - - N/A% 30.26 in 0.2 mi Calm Calm - N/A Fog Fog
6:15 AM - - N/A% 30.27 in 0.5 mi Calm Calm - N/A Fog Fog
6:35 AM - - N/A% 30.28 in 1.0 mi Calm Calm - N/A   Mist
6:55 AM - - N/A% 30.29 in 2.5 mi Calm Calm - N/A   Clear
7:35 AM - - N/A% 30.30 in 3.0 mi Calm Calm - N/A   Clear
7:55 AM - - N/A% 30.30 in 4.0 mi Calm Calm - N/A   Haze
8:15 AM - - N/A% 30.31 in 5.0 mi NE 3.5 mph - N/A   Haze
8:35 AM - - N/A% 30.31 in 7.0 mi ENE 3.5 mph - N/A   Clear
8:55 AM - - N/A% 30.32 in 10.0 mi Calm Calm - N/A   Clear
9:15 AM - - N/A% 30.32 in 10.0 mi Calm Calm - N/A   Clear
9:35 AM - - N/A% 30.32 in 10.0 mi Calm Calm - N/A   Clear
9:55 AM - - N/A% 30.31 in 10.0 mi Calm Calm - N/A   Clear
10:15 AM - - N/A% 30.30 in 10.0 mi Calm Calm - N/A   Clear
10:35 AM 57.2 °F 37.4 °F 48% 30.30 in 10.0 mi South 3.5 mph - N/A   Clear
10:55 AM 59.0 °F 35.6 °F 42% 30.29 in 10.0 mi Calm Calm - N/A   Clear
11:15 AM 59.0 °F 35.6 °F 42% 30.28 in 10.0 mi Calm Calm - N/A   Clear
11:35 AM 60.8 °F 35.6 °F 39% 30.27 in 10.0 mi Calm Calm - N/A   Clear
11:55 AM 60.8 °F 33.8 °F 36% 30.26 in 10.0 mi Calm Calm - N/A   Clear
12:15 PM 62.6 °F 32.0 °F 32% 30.24 in 10.0 mi WSW 3.5 mph - N/A   Clear
12:35 PM 62.6 °F 30.2 °F 30% 30.23 in 10.0 mi SW 4.6 mph - N/A   Clear
12:55 PM 64.4 °F 32.0 °F 30% 30.22 in 10.0 mi Calm Calm - N/A   Clear
1:15 PM 64.4 °F 32.0 °F 30% 30.21 in 10.0 mi Calm Calm - N/A   Clear
1:35 PM 64.4 °F 32.0 °F 30% 30.21 in 10.0 mi SSW 3.5 mph - N/A   Clear
1:55 PM 64.4 °F 32.0 °F 30% 30.20 in 10.0 mi Calm Calm - N/A   Clear
2:15 PM 66.2 °F 30.2 °F 26% 30.20 in 10.0 mi Calm Calm - N/A   Clear
2:35 PM 66.2 °F 28.4 °F 24% 30.20 in 10.0 mi Calm Calm - N/A   Clear
2:55 PM 66.2 °F 32.0 °F 28% 30.20 in 10.0 mi Calm Calm - N/A   Clear
3:15 PM 66.2 °F 28.4 °F 24% 30.20 in 10.0 mi SW 4.6 mph - N/A   Clear
3:35 PM 66.2 °F 30.2 °F 26% 30.19 in 10.0 mi Calm Calm - N/A   Clear
3:55 PM 64.4 °F 32.0 °F 30% 30.19 in 10.0 mi SW 4.6 mph - N/A   Clear
4:15 PM 64.4 °F 32.0 °F 30% 30.19 in 10.0 mi Calm Calm - N/A   Clear
4:35 PM 59.0 °F 35.6 °F 42% 30.20 in 10.0 mi Calm Calm - N/A   Clear
4:55 PM 55.4 °F 37.4 °F 51% 30.20 in 10.0 mi Calm Calm - N/A   Clear
5:15 PM 53.6 °F 39.2 °F 58% 30.21 in 10.0 mi Calm Calm - N/A   Clear
5:35 PM 51.8 °F 39.2 °F 62% 30.21 in 10.0 mi Calm Calm - N/A   Clear
5:55 PM 50.0 °F 41.0 °F 71% 30.22 in 10.0 mi Calm Calm - N/A   Clear
6:15 PM 46.4 °F 41.0 °F 81% 30.22 in 10.0 mi Calm Calm - N/A   Clear
6:35 PM 46.4 °F 41.0 °F 81% 30.22 in 10.0 mi Calm Calm - N/A   Clear
6:55 PM 44.6 °F 39.2 °F 81% 30.22 in 10.0 mi Calm Calm - N/A   Clear
7:15 PM 44.6 °F 37.4 °F 76% 30.22 in 10.0 mi Calm Calm - N/A   Clear
7:35 PM 42.8 °F 37.4 °F 81% 30.23 in 10.0 mi Calm Calm - N/A   Clear
7:55 PM 42.8 °F 37.4 °F 81% 30.23 in 10.0 mi Calm Calm - N/A   Clear
8:15 PM 41.0 °F 37.4 °F 87% 30.24 in 10.0 mi Calm Calm - N/A   Clear
8:35 PM 41.0 °F 37.4 °F 87% 30.24 in 10.0 mi Calm Calm - N/A   Clear
8:55 PM 41.0 °F 37.4 °F 87% 30.25 in 10.0 mi Calm Calm - N/A   Clear
9:15 PM 41.0 °F 37.4 °F 87% 30.24 in 7.0 mi Calm Calm - N/A   Clear
9:35 PM 39.2 °F 35.6 °F 87% 30.25 in 7.0 mi Calm Calm - N/A   Clear
9:55 PM 37.4 °F 35.6 °F 93% 30.25 in 7.0 mi Calm Calm - N/A   Clear
10:15 PM 37.4 °F 35.6 °F 93% 30.25 in 7.0 mi Calm Calm - N/A   Clear
10:35 PM 37.4 °F 35.6 °F 93% 30.25 in 7.0 mi Calm Calm - N/A   Clear
11:15 PM 37.4 °F 35.6 °F 93% 30.25 in 7.0 mi Calm Calm - N/A   Clear
11:35 PM 35.6 °F 33.8 °F 93% 30.25 in 5.0 mi Calm Calm - N/A   Clear
11:55 PM 35.6 °F 33.8 °F 93% 30.25 in 7.0 mi Calm Calm - N/A   Clear